Location: Coffee Creek Observatory
(38.8077°N, 94.7179°W)
Time: 11:30:13
(UTC-06:00)

Daily predictions for brighter satellites

Satellite Brightness Start Highest point End
(mag) Time Altitude Azimuth Time Altitude Azimuth Time Altitude Azimuth
Meteor 1-18 Rocket 4.3 18:22:52 10° N 18:28:20 56° ENE 18:33:49 10° SSE
SL-16 R/B 2.3 18:26:26 10° NNW 18:32:01 55° ENE 18:37:33 10° SE
Cosmos 1484 Rocket 3.5 18:28:27 10° S 18:32:23 62° W 18:36:18 10° NNW
SJ-6B 3.6 18:30:01 10° SE 18:33:33 30° ENE 18:37:04 10° N
Nadezhda 1 Rocket 3.9 18:28:15 10° N 18:34:19 67° E 18:40:20 10° SSE
DNEPR-1 R/B 3.8 18:31:06 10° NNW 18:35:12 45° NE 18:39:17 10° SE
ERBS 4.2 18:32:09 10° WNW 18:35:20 34° SW 18:38:29 10° SSE
TSX-5 4.5 18:32:42 10° SSE 18:35:20 23° ESE 18:37:56 10° NE
Cosmos 1992 Rocket 4.2 18:32:36 10° NNW 18:37:51 80° WSW 18:43:04 10° SSE
Resurs 01 Rocket 2.9 18:36:24 10° ESE 18:39:38 20° ENE 18:42:51 10° NNE
Cosmos 407 Rocket 3.5 18:35:06 10° S 18:40:15 64° ESE 18:45:31 10° NNE
Gbstr 26 Del rocket 4.2 18:38:26 10° S 18:41:21 20° SE 18:43:57 11° E
Cosmos 1340 3.8 18:38:23 10° NNE 18:41:26 23° ENE 18:44:28 10° SE
Cosmos 676 Rocket 4.3 18:37:32 10° S 18:42:26 45° ESE 18:47:23 10° NNE
Cosmos 1238 Rocket 3.8 18:41:06 10° NE 18:42:55 15° ENE 18:44:41 10° ESE
DELTA 2 R/B (1) 3.6 18:37:36 10° W 18:43:15 84° N 18:48:38 11° E
Meteor 1-20 Rocket 4.3 18:38:02 10° S 18:43:50 74° E 18:49:40 10° NNE
Cosmos 2181 Rocket 4.5 18:42:39 10° N 18:48:24 37° ENE 18:54:11 10° SE
Cosmos 2322 Rocket 2.1 18:44:20 10° NNW 18:49:58 80° ENE 18:55:34 10° SSE
Meteor 1-28 Rocket 3.8 18:46:51 10° N 18:50:36 61° WNW 18:54:21 10° SSW
Tiangong 2 1.0 18:49:10 10° WNW 18:52:14 69° NNE 18:54:33 16° E
Cosmos 44 Rocket 4.5 18:49:26 10° NW 18:53:56 44° WSW 18:58:22 10° S
Cosmos 1300 Rocket 4.2 18:51:38 10° SSE 18:55:36 34° E 18:59:36 10° NNE
COSMO-SKYMED 1 3.9 18:52:50 10° N 18:56:58 43° WNW 19:01:04 10° SW
Cosmos 1536 4.1 18:55:08 10° SE 18:58:03 20° E 19:00:59 10° NE
Resurs 1-3 4.4 18:58:28 10° SE 19:02:13 29° ENE 19:05:59 10° N
Cosmos 2322 4.3 18:57:22 10° N 19:02:34 35° ENE 19:07:31 11° ESE
Okean 1 3.2 19:00:55 10° N 19:04:59 82° E 19:09:03 10° S
FENGYUN 3A 3.8 19:00:13 10° SE 19:05:25 51° ENE 19:10:40 10° N
Cosmos 1140 Rocket 3.7 19:00:37 10° S 19:05:26 43° ESE 19:10:18 10° NNE
Cosmos 1709 Rocket 3.9 19:00:34 10° S 19:06:46 70° E 19:12:55 10° NNE
Cosmos 1461 2.7 19:04:03 10° NNW 19:08:05 85° ENE 19:12:12 10° SSE
H-2A R/B 3.3 19:10:07 11° SE 19:13:16 34° ENE 19:16:41 10° N
Cosmos 44 4.3 19:09:35 10° NW 19:13:44 41° WSW 19:17:46 10° S
Cosmos 2292 Rocket 4.2 19:10:03 10° S 19:14:49 87° W 19:21:22 10° N
COSMOS 2428 3.8 19:10:53 10° N 19:15:26 24° NE 19:16:58 21° E
Spot 2 Rocket 3.7 19:10:41 10° SE 19:15:31 49° ENE 19:20:24 10° N
Meteor 2-4 Rocket 4.1 19:11:41 10° N 19:16:49 37° ENE 19:21:47 10° SE
Cosmos 614 Rocket 4.2 19:13:02 10° S 19:17:48 42° ESE 19:22:34 10° NNE
Cosmos 2151 Rocket 4.3 19:15:28 10° SSW 19:19:53 58° W 19:24:21 10° N
SAR-Lupe-4 4.4 19:20:39 29° ENE 19:20:39 29° ENE 19:23:39 10° N
Helios 1A 3.8 19:21:30 28° E 19:21:50 28° ENE 19:25:25 10° N
Cosmos 1850 Rocket 4.4 19:19:19 10° S 19:24:14 41° ESE 19:29:13 10° NNE
Cosmos 2237 Rocket 4.3 19:23:44 10° NE 19:23:53 10° NE 19:23:53 10° NE
Okean 1 Rocket 3.1 19:22:02 10° S 19:26:26 58° E 19:30:50 10° NNE
HJ-1C 3.4 19:26:24 10° S 19:29:45 82° WSW 19:33:09 10° NNW
GPS 2-04 Rocket1 4.3 19:26:46 10° SSW 19:30:10 23° SSE 19:30:46 22° SE
Meteor 1-11 Rocket 3.7 19:25:14 10° S 19:30:58 76° E 19:36:52 10° NNE
Envisat 4.4 19:33:04 21° NE 19:33:04 21° NE 19:35:50 10° NNE
Cosmos 1954 Rocket 4.1 19:28:29 10° SSW 19:33:39 75° WNW 19:38:53 10° NNE
Abrixas rocket 4.5 19:32:07 10° S 19:33:02 14° SSE 19:33:02 14° SSE
GEOS 3 Rocket 3.9 19:29:30 10° NNE 19:34:44 69° NW 19:39:58 10° SW
Cosmos 2219 3.5 19:32:25 10° S 19:37:50 44° ESE 19:41:01 23° NE
NOSS 8 (E) 4.3 19:38:02 10° SSW 19:41:30 83° ESE 19:42:05 59° NE
Cosmos 2360 Rocket 2.1 19:36:28 10° NNW 19:42:09 82° ENE 19:47:02 14° SSE
Helios 1B rocket 2.6 19:44:11 48° SE 19:44:11 48° SE 19:47:44 10° S
Cosmos 2219 Rocket 3.5 19:40:37 10° N 19:44:08 22° NE 19:44:08 22° NE
Cosmos 1633 3.7 19:42:27 10° SSW 19:45:59 45° W 19:49:33 10° N
Okean 1-7 Rocket 3.5 19:41:58 10° N 19:46:29 64° E 19:48:12 36° SSE
Cosmos 1025 Rocket 3.4 19:52:05 10° N 19:55:30 48° NNE 19:55:30 48° NNE
ALOS 3.4 19:52:51 10° S 19:57:18 45° W 20:01:47 10° NNW
Spot 1 3.8 19:59:37 81° NNE 19:59:37 81° NNE 20:03:34 10° NNW
ATLAS 2A CENTAUR R/B 4.1 20:03:39 10° SW 20:06:47 19° SSE 20:07:24 19° SSE
Cosmos 2333 Rocket 3.5 20:05:52 10° N 20:09:03 25° NNE 20:09:03 25° NNE
BREEZE-M DEB (TANK) 2.7 20:09:16 10° NW 20:12:05 78° N 20:12:05 78° N
Cosmos 1741 Rocket 4.2 20:08:52 10° SSW 20:14:05 70° WNW 20:18:33 14° NNE
Resurs 01 Rocket 3.2 20:11:50 10° SSW 20:15:51 34° W 20:19:54 10° NNW
Cosmos 1610 Rocket 4.3 20:18:52 10° S 20:25:06 84° E 20:31:20 10° N
Gbstr 26 Del rocket 4.5 20:24:19 10° WSW 20:26:33 30° W 20:26:33 30° W
Tiangong 2 4.3 20:26:01 10° W 20:26:33 13° W 20:26:33 13° W
Cosmos 1570 Rocket 4.3 20:23:40 10° NNW 20:28:50 64° WSW 20:29:15 61° SW
DELTA 2 R/B (1) 3.9 20:24:10 10° W 20:29:26 56° SSW 20:29:26 56° SSW
COSMOS 2428 3.6 20:54:29 10° NW 20:59:03 45° WNW 20:59:03 45° WNW
Cosmos 2237 Rocket 4.2 21:03:57 10° NNW 21:05:44 21° NNW 21:05:44 21° NNW
USA 229 DEB 4.4 21:14:15 10° NW 21:19:44 52° WNW 21:19:44 52° WNW
USA 229 4.4 21:14:21 10° NW 21:19:48 52° WNW 21:19:48 52° WNW
Cosmos 2219 Rocket 4.2 21:23:50 10° NNW 21:25:54 22° NW 21:25:54 22° NW
